Location: Wildcat Hills Observatory
(41.6350°N, 103.6812°W)
Time: 04:46:32
(UTC-07:00)

Daily predictions for brighter satellites

Satellite Brightness Start Highest point End
(mag) Time Altitude Azimuth Time Altitude Azimuth Time Altitude Azimuth
ATLAS 5 CENTAUR R/B 4.2 03:09:45 20° NE 03:09:45 20° NE 03:11:23 10° NE
Cosmos 1943 Rocket 3.7 03:15:06 31° NE 03:15:06 31° NE 03:18:09 10° NE
ADEOS II 3.3 03:24:28 10° NNE 03:28:37 39° ENE 03:28:37 39° ENE
CZ-4B R/B 4.0 03:27:03 10° NNE 03:32:07 49° E 03:32:07 49° E
Lacrosse 5 rocket 4.2 03:44:18 11° NE 03:44:18 11° NE 03:44:52 10° NE
Lacrosse 5 2.8 03:55:46 40° NNE 03:55:46 40° NNE 03:59:13 10° NE
Cosmos 1656 Rocket 3.8 04:11:37 52° S 04:13:00 74° ESE 04:18:41 10° NNE
CZ-4C R/B 2.1 04:12:59 67° S 04:13:41 78° ESE 04:19:36 10° NE
Cosmos 1954 Rocket 4.0 04:10:52 23° NNW 04:14:18 82° ENE 04:19:37 10° SSE
PAYLOAD B 4.2 04:12:00 10° N 04:17:06 61° NW 04:17:06 61° NW
IRS-1C Rocket 4.4 04:13:02 10° N 04:17:18 51° NNW 04:17:18 51° NNW
GEOS 3 Rocket 3.5 04:14:06 10° SE 04:19:11 86° NE 04:20:40 48° NNW
Meteor 1-26 Rocket 4.1 04:18:35 37° S 04:20:57 89° E 04:26:35 10° N
Cosmos 2369 Rocket 3.7 04:23:10 22° NNW 04:23:10 22° NNW 04:26:10 10° N
CZ-4B DEB 4.1 04:16:13 10° N 04:21:43 64° WNW 04:21:48 64° WNW
Cosmos 1420 Rocket 4.4 04:19:14 28° S 04:21:54 61° ESE 04:27:01 10° NNE
Okean O Rocket 3.6 04:18:07 10° N 04:19:19 18° N 04:19:19 18° N
Cosmos 2219 3.5 04:16:43 10° NNW 04:22:23 64° ENE 04:27:57 10° SE
Cosmos 2227 Rocket 4.4 04:20:01 10° N 04:24:32 24° NE 04:29:02 10° ESE
Meteor 1-31 Rocket 3.4 04:20:57 10° NNE 04:24:46 55° E 04:25:38 44° SSE
Cosmos 1553 Rocket 4.3 04:21:22 10° S 04:27:29 66° E 04:33:44 10° NNE
USA 234 3.3 04:22:40 10° NE 04:29:13 77° SE 04:32:32 32° SW
Meteor 2-10 Rocket 3.3 04:35:43 50° SW 04:36:51 67° WNW 04:41:56 10° N
Okean 1-7 2.8 04:37:17 44° S 04:38:36 87° W 04:42:53 10° N
Cosmos 2221 Rocket 3.5 04:39:17 50° SSW 04:40:23 71° W 04:44:57 10° N
ERS-2 3.7 04:36:56 10° N 04:38:42 25° N 04:38:42 25° N
Cosmos 1023 Rocket 4.3 04:36:05 10° NNW 04:41:20 75° WSW 04:46:35 10° SSE
ATLAS 3B R/B 3.4 04:41:04 10° SSW 04:48:30 61° ESE 04:55:41 10° NE
Cosmos 1452 Rocket 3.7 04:48:20 41° W 04:49:23 47° WNW 04:54:30 10° N
Thor Agena Rocket 3.4 04:44:56 10° SSE 04:50:09 81° WSW 04:55:20 10° NNW
ATLAS 5 CENTAUR R/B 3.3 04:51:18 21° NW 04:51:32 21° NW 04:55:32 10° NNE
Abrixas 4.4 04:55:34 20° N 04:55:41 20° N 04:57:56 10° NE
Cosmos 1943 Rocket 3.2 04:56:39 25° NW 04:56:49 25° NW 05:01:21 10° N
Cosmos 1741 Rocket 3.9 04:56:19 10° NNW 05:01:35 82° WSW 05:06:50 10° SSE
Cosmos 1782 Rocket 3.9 04:57:53 10° NNW 05:02:03 40° W 05:06:11 10° SSW
Feng Yun 1-1 Rocket 4.3 04:58:42 10° N 05:04:32 65° WNW 05:10:23 10° SSW
Meteor 1-28 Rocket 4.1 05:01:54 10° SSE 05:05:31 50° ENE 05:09:10 10° N
ADEOS II 3.1 05:04:42 10° NNW 05:08:56 25° WNW 05:09:35 25° WNW
SJ-6F 4.4 05:08:14 10° N 05:12:19 59° WNW 05:16:21 10° SSW
CZ-4B R/B 4.3 05:08:19 10° N 05:12:45 25° WNW 05:14:01 23° W
Cosmos 1140 Rocket 3.9 05:08:05 10° NW 05:12:55 38° WSW 05:17:43 10° S
Radarsat Rocket 4.3 05:07:12 10° NNE 05:14:24 85° ESE 05:20:43 10° SSW
Cosmos 614 Rocket 4.1 05:10:01 10° NNW 05:14:54 48° WSW 05:19:49 10° S
SKYMED 2 3.5 05:11:06 10° SSE 05:15:26 83° WSW 05:19:49 10° NNW
Cosmos 1386 Rocket 4.4 05:11:15 10° N 05:17:20 80° W 05:23:29 10° S
Cosmos 1745 Rocket 3.9 05:11:26 10° NNW 05:17:28 61° W 05:23:27 10° S
Tiangong 1 1.0 05:19:40 34° WNW 05:20:43 67° N 05:23:39 10° E
Okean-O 3.3 05:18:09 10° N 05:22:08 33° WNW 05:25:43 12° SW
Lacrosse 5 rocket 1.7 05:20:02 12° NW 05:23:19 52° NE 05:26:51 10° ESE
Meteor 1-20 Rocket 4.4 05:19:47 10° NNW 05:25:15 50° W 05:30:36 10° SSW
Cosmos 1674 Rocket 3.8 05:21:29 10° S 05:25:51 73° E 05:30:18 10° NNE
Cosmos 2082 4.3 05:21:16 10° NNW 05:26:53 60° ENE 05:32:26 10° SE
Meteor 1-27 Rocket 4.0 05:24:17 10° S 05:30:03 77° E 05:35:57 10° NNE
USA 81 4.1 05:25:08 10° SSW 05:30:19 57° W 05:35:32 10° N
Cosmos 1606 2.8 05:27:34 10° SSW 05:31:21 52° W 05:35:11 10° N
Okean 2 Rocket 4.0 05:30:08 10° NW 05:33:42 25° W 05:37:16 10° SW
Cosmos 1602 3.9 05:30:34 10° N 05:34:33 82° E 05:38:30 10° S
Lacrosse 5 3.6 05:34:59 12° WNW 05:38:04 19° NNW 05:41:42 10° NNE
Cosmos 1782 3.5 05:37:24 10° SW 05:40:56 31° WNW 05:44:30 10° NNW
PAYLOAD A 4.4 05:37:16 10° NNE 05:42:00 64° E 05:46:51 10° S
Cosmos 2369 3.9 05:37:14 10° SSW 05:42:51 79° ESE 05:48:31 10° NNE
Cosmos 1607 4.0 05:41:01 10° SW 05:47:02 58° NW 05:53:10 10° NNE
Okean 1 Rocket 3.3 05:43:00 10° N 05:47:26 77° E 05:51:47 10° SSE
Cosmos 2297 Rocket 2.4 05:42:52 10° NNW 05:48:34 78° ENE 05:54:12 10° SSE
ISS -0.1 05:48:01 10° SSE 05:49:15 12° SE 05:50:27 10° ESE
Cosmos 2151 Rocket 4.3 05:49:40 10° NNW 05:53:41 32° W 05:57:39 10° SSW
CSL-04 Debris 4.3 05:49:31 10° NNE 05:54:57 82° ESE 06:00:20 10° SSW
Ariane Rocket 3.0 05:53:20 10° N 05:58:24 68° WNW 06:03:26 10° SSW
Cosmos 2278 3.7 05:53:16 10° SSW 05:58:53 74° WNW 06:04:33 10° NNE
Cosmos 1346 Rocket 3.6 05:58:07 10° S 06:02:07 60° E 06:06:06 10° NNE
CZ-4C R/B 3.6 05:58:37 10° W 06:02:58 23° NNW 06:07:46 10° NNE
COSMO-SKYMED 1 3.6 06:00:09 10° SSW 06:03:42 24° W 06:07:15 10° NW
Cosmos 1633 3.1 06:00:43 10° NNW 06:04:02 34° W 06:07:19 10° SSW
Gblst 52 Del rocket 4.4 05:58:34 10° WSW 06:04:21 81° NNW 06:10:56 10° NE
